Location: Newark
(40.3500°N, 15.2333°E)
Time: 04:10:00
(UTC+00:00)

Altair - Pass Details

Date: 27 January 2020
Orbit: 1502 x 1682 km, 47.2° (Epoch: 18 February)

Event Time Altitude Azimuth Distance (km) Brightness Sun altitude
Rises 04:53:48 0° 194° (SSW) 4,805 10.1 -15.2°
Reaches altitude 10° 04:57:26 10° 183° (S) 3,849 9.7 -14.6°
Maximum altitude 05:05:25 29° 129° (SE) 2,709 9.5 -13.1°
Drops below altitude 10° 05:13:32 10° 74° (ENE) 3,941 10.6 -11.6°
Sets 05:17:16 0° 64° (ENE) 4,938 11.0 -10.9°
